GW4339 Weather Reports


time (UTC)temp
C
wind
direction
speed
KPH
gust
KPH
rain 1hr
cm
rain 24hr
cm
rain mn
cm
humidity
%
barometer
mb
20260505041700 16 241 0.0 0.0 0.00 0.00 0.00 66 1014.1
20260505041158 16 300 0.0 0.0 0.00 0.00 0.00 66 1014.2
20260505040654 16 259 0.0 0.0 0.00 0.00 0.00 65 1014.1
20260505040151 16 247 0.0 0.0 0.00 0.00 0.00 65 1014.1
20260505035647 16 253 0.0 0.0 0.00 0.00 0.00 65 1013.9
20260505035139 16 253 0.0 0.0 0.00 0.00 0.00 63 1014.0
20260505034635 16 246 0.0 0.0 0.00 0.00 0.00 63 1013.8
20260505034133 16 241 0.0 0.0 0.00 0.00 0.00 63 1013.9
20260505033628 16 241 0.0 0.0 0.00 0.00 0.00 61 1013.8
20260505033127 16 241 0.0 0.0 0.00 0.00 0.00 61 1013.7
20260505032625 16 253 0.0 0.0 0.00 0.00 0.00 61 1014.0
20260505032121 17 253 0.0 0.0 0.00 0.00 0.00 61 1013.8
20260505031619 17 253 0.0 0.0 0.00 0.00 0.00 60 1013.8
20260505031114 17 255 0.0 0.0 0.00 0.00 0.00 59 1013.7
20260505030612 17 240 0.0 0.0 0.00 0.00 0.00 59 1013.9
20260505030107 17 240 0.0 0.0 0.00 0.00 0.00 58 1013.9
20260505025603 17 265 0.0 0.0 0.00 0.00 0.00 58 1013.8
20260505025102 17 253 0.0 0.0 0.00 0.00 0.00 58 1013.7
20260505024559 17 240 0.0 0.0 0.00 0.00 0.00 58 1013.9
20260505024056 17 228 0.0 0.0 0.00 0.00 0.00 59 1013.9
20260505023554 17 258 0.0 0.0 0.00 0.00 0.00 57 1013.8
20260505023051 17 247 0.0 0.0 0.00 0.00 0.00 57 1013.6
20260505022548 17 265 0.0 0.0 0.00 0.00 0.00 55 1013.8
20260505022045 17 262 0.0 0.0 0.00 0.00 0.00 55 1013.9
20260505021542 18 250 0.0 0.0 0.00 0.00 0.00 54 1013.8
20260505021038 18 257 0.0 0.0 0.00 0.00 0.00 53 1013.8
20260505020533 18 251 0.0 0.0 0.00 0.00 0.00 54 1013.8
20260505020030 18 297 0.0 1.6 0.00 0.00 0.00 52 1013.6
20260505015527 18 263 0.0 0.0 0.00 0.00 0.00 53 1013.7
20260505015024 18 256 0.0 0.0 0.00 0.00 0.00 53 1013.7
20260505014521 18 224 0.0 0.0 0.00 0.00 0.00 53 1013.7
20260505014018 18 251 0.0 0.0 0.00 0.00 0.00 53 1013.6
20260505013515 18 233 0.0 0.0 0.00 0.00 0.00 52 1013.5
20260505013012 19 239 0.0 1.6 0.00 0.00 0.00 50 1013.5
20260505012510 19 250 0.0 0.0 0.00 0.00 0.00 49 1013.5
20260505012007 19 278 0.0 0.0 0.00 0.00 0.00 50 1013.4
20260505011503 19 356 0.0 3.2 0.00 0.00 0.00 52 1013.3
20260505011000 19 252 0.0 0.0 0.00 0.00 0.00 50 1013.3
20260505010455 19 254 0.0 0.0 0.00 0.00 0.00 50 1013.3
20260505005951 20 266 0.0 0.0 0.00 0.00 0.00 49 1013.2
20260505005448 19 279 0.0 1.6 0.00 0.00 0.00 50 1013.2
20260505004946 20 263 0.0 0.0 0.00 0.00 0.00 50 1013.3
20260505004443 20 252 0.0 1.6 0.00 0.00 0.00 50 1013.2
20260505004018 19 0.0 0.0 0.00 0.00 0.00 50 1017.3
20260505003940 19 255 0.0 0.0 0.00 0.00 0.00 51 1013.2
20260505003437 20 241 0.0 0.0 0.00 0.00 0.00 50 1013.1
20260505003051 20 0.0 0.0 0.00 0.00 0.00 49 1017.3
20260505002933 20 254 0.0 0.0 0.00 0.00 0.00 49 1013.2
20260505002429 20 290 0.0 0.0 0.00 0.00 0.00 49 1013.0
20260505002044 20 212 0.0 1.6 0.00 0.00 0.00 51 1017.2
20260505001928 20 249 0.0 0.0 0.00 0.00 0.00 50 1013.1
20260505001425 20 246 0.0 1.6 0.00 0.00 0.00 51 1013.0
20260505001040 20 0.0 0.0 0.00 0.00 0.00 49 1017.2
20260505000922 20 239 0.0 0.0 0.00 0.00 0.00 49 1013.0
20260505000420 20 221 0.0 0.0 0.00 0.00 0.00 49 1013.1
20260505000037 20 0.0 0.0 0.00 0.00 0.00 48 1017.2
20260504235916 20 250 0.0 0.0 0.00 0.00 0.00 49 1013.0
20260504235414 20 248 0.0 0.0 0.00 0.00 0.00 48 1013.0
20260504235031 21 0.0 0.0 0.00 0.00 0.00 47 1017.1
20260504234910 20 247 0.0 0.0 0.00 0.00 0.00 48 1012.9
20260504234408 21 253 0.0 0.0 0.00 0.00 0.00 46 1012.8
20260504234028 21 262 0.0 3.2 0.00 0.00 0.00 45 1017.0
20260504233904 21 246 0.0 1.6 0.00 0.00 0.00 46 1012.9
20260504233359 21 325 0.0 0.0 0.00 0.00 0.00 45 1012.9
20260504233021 22 265 3.2 4.8 0.00 0.00 0.00 44 1016.9
20260504232856 22 269 3.2 4.8 0.00 0.00 0.00 44 1012.8
20260504232354 22 305 0.0 0.0 0.00 0.00 0.00 43 1012.8
20260504232055 22 273 1.6 3.2 0.00 0.00 0.00 43 1016.9
20260504231850 22 228 0.0 0.0 0.00 0.00 0.00 43 1012.7
20260504231347 22 349 3.2 4.8 0.00 0.00 0.00 42 1012.6
20260504231049 22 205 0.0 1.6 0.00 0.00 0.00 41 1016.9
20260504230843 22 230 0.0 1.6 0.00 0.00 0.00 41 1012.6
20260504230341 23 257 3.2 4.8 0.00 0.00 0.00 41 1012.7
20260504230042 23 261 4.8 6.4 0.00 0.00 0.00 40 1016.9
20260504225839 23 253 3.2 11.3 0.00 0.00 0.00 40 1012.8
20260504225335 23 249 3.2 6.4 0.00 0.00 0.00 41 1012.7
20260504225037 23 269 3.2 9.7 0.00 0.00 0.00 40 1016.9
20260504224833 23 192 3.2 6.4 0.00 0.00 0.00 40 1012.7
20260504224330 23 220 4.8 9.7 0.00 0.00 0.00 40 1012.7
20260504224033 23 267 3.2 6.4 0.00 0.00 0.00 39 1016.9
20260504223826 23 234 1.6 3.2 0.00 0.00 0.00 40 1012.7
20260504223322 23 264 0.0 3.2 0.00 0.00 0.00 39 1012.7
20260504223029 23 273 4.8 9.7 0.00 0.00 0.00 38 1016.9
20260504222819 23 299 3.2 4.8 0.00 0.00 0.00 37 1012.7
20260504222316 23 294 3.2 12.9 0.00 0.00 0.00 37 1012.9
20260504222025 24 260 6.4 12.9 0.00 0.00 0.00 37 1017.0
20260504221814 24 298 3.2 12.9 0.00 0.00 0.00 36 1012.9
20260504221310 25 231 0.0 6.4 0.00 0.00 0.00 37 1012.9
20260504221021 24 219 3.2 4.8 0.00 0.00 0.00 36 1017.1
20260504220808 25 250 0.0 4.8 0.00 0.00 0.00 35 1012.8
20260504220304 23 278 6.4 9.7 0.00 0.00 0.00 36 1012.8
20260504220017 24 273 8.0 24.1 0.00 0.00 0.00 36 1017.0
20260504215802 24 238 4.8 9.7 0.00 0.00 0.00 37 1012.9
20260504215258 24 164 11.3 20.9 0.00 0.00 0.00 35 1012.9
20260504215055 24 246 6.4 17.7 0.00 0.00 0.00 35 1017.1
20260504214754 25 260 6.4 17.7 0.00 0.00 0.00 37 1012.9
20260504214250 24 261 11.3 14.5 0.00 0.00 0.00 35 1013.1
20260504214050 25 254 6.4 22.5 0.00 0.00 0.00 35 1017.1
20260504213747 25 261 3.2 6.4 0.00 0.00 0.00 35 1013.0
20260504213243 25 194 3.2 12.9 0.00 0.00 0.00 35 1013.0
20260504213039 24 273 6.4 17.7 0.00 0.00 0.00 35 1017.0
20260504212740 24 226 3.2 14.5 0.00 0.00 0.00 35 1012.8
20260504212237 24 261 4.8 17.7 0.00 0.00 0.00 35 1012.9
20260504212035 24 269 6.4 12.9 0.00 0.00 0.00 35 1017.0
20260504211735 24 264 3.2 6.4 0.00 0.00 0.00 36 1012.8
20260504211230 24 218 3.2 9.7 0.00 0.00 0.00 35 1013.0
20260504211042 25 251 3.2 9.7 0.00 0.00 0.00 34 1017.0
20260504210728 25 316 6.4 9.7 0.00 0.00 0.00 34 1012.8
20260504210225 25 251 1.6 4.8 0.00 0.00 0.00 35 1012.7
20260504210038 24 272 6.4 16.1 0.00 0.00 0.00 34 1017.0
20260504205722 24 218 3.2 16.1 0.00 0.00 0.00 34 1012.9
20260504205220 25 237 8.0 12.9 0.00 0.00 0.00 34 1012.8
20260504205114 25 264 6.4 14.5 0.00 0.00 0.00 34 1017.0
20260504204718 25 201 8.0 12.9 0.00 0.00 0.00 34 1012.9
20260504204216 25 180 3.2 17.7 0.00 0.00 0.00 34 1012.9
20260504204047 25 273 6.4 14.5 0.00 0.00 0.00 33 1017.1
20260504203715 25 251 8.0 14.5 0.00 0.00 0.00 33 1013.0
20260504203207 25 158 14.5 20.9 0.00 0.00 0.00 33 1012.8
20260504203036 25 262 6.4 11.3 0.00 0.00 0.00 33 1016.9
20260504202706 25 296 3.2 6.4 0.00 0.00 0.00 32 1012.8
20260504202204 25 336 4.8 12.9 0.00 0.00 0.00 33 1013.0
20260504202023 25 257 4.8 9.7 0.00 0.00 0.00 33 1017.0
20260504201701 25 239 3.2 20.9 0.00 0.00 0.00 32 1012.9
20260504201158 25 307 8.0 9.7 0.00 0.00 0.00 33 1012.8
20260504201051 25 294 6.4 16.1 0.00 0.00 0.00 32 1017.0
20260504200655 25 41 6.4 9.7 0.00 0.00 0.00 32 1012.8
20260504200151 25 325 9.7 12.9 0.00 0.00 0.00 31 1013.1
20260504200042 25 272 3.2 6.4 0.00 0.00 0.00 31 1017.2
20260504195648 25 218 0.0 9.7 0.00 0.00 0.00 30 1013.1
20260504195144 25 315 3.2 4.8 0.00 0.00 0.00 32 1013.3
20260504195051 25 228 3.2 9.7 0.00 0.00 0.00 31 1017.5
20260504194641 25 222 0.0 4.8 0.00 0.00 0.00 32 1013.4
20260504194137 25 262 4.8 25.7 0.00 0.00 0.00 33 1013.2
20260504194016 24 252 6.4 25.7 0.00 0.00 0.00 32 1017.6
20260504193633 24 82 0.0 11.3 0.00 0.00 0.00 31 1013.3
20260504193132 25 198 3.2 3.2 0.00 0.00 0.00 31 1013.5
20260504193046 25 262 3.2 11.3 0.00 0.00 0.00 31 1017.7
20260504192629 25 355 6.4 9.7 0.00 0.00 0.00 30 1013.5
20260504192127 24 263 4.8 17.7 0.00 0.00 0.00 32 1013.5
20260504192033 24 255 4.8 16.1 0.00 0.00 0.00 31 1017.8
20260504191626 24 264 9.7 17.7 0.00 0.00 0.00 31 1013.7
20260504191121 25 173 3.2 14.5 0.00 0.00 0.00 34 1013.6
20260504191023 25 309 4.8 14.5 0.00 0.00 0.00 31 1017.9
20260504190617 25 211 1.6 6.4 0.00 0.00 0.00 33 1013.7
20260504190114 25 251 3.2 6.4 0.00 0.00 0.00 31 1014.0
20260504190051 24 256 6.4 11.3 0.00 0.00 0.00 32 1018.1
20260504185611 25 259 6.4 11.3 0.00 0.00 0.00 32 1013.9
20260504185107 25 267 8.0 12.9 0.00 0.00 0.00 32 1014.0
20260504185102 24 242 4.8 12.9 0.00 0.00 0.00 32 1018.2
20260504184603 25 176 3.2 6.4 0.00 0.00 0.00 31 1013.8
20260504184058 23 228 4.8 9.7 0.00 0.00 0.00 34 1014.2
20260504184032 23 258 4.8 9.7 0.00 0.00 0.00 33 1018.3
20260504183556 23 295 6.4 11.3 0.00 0.00 0.00 31 1014.2
20260504183054 23 300 4.8 9.7 0.00 0.00 0.00 34 1014.4
20260504183021 23 280 8.0 14.5 0.00 0.00 0.00 33 1018.4
20260504182550 23 250 6.4 9.7 0.00 0.00 0.00 35 1014.4
20260504182132 23 261 6.4 16.1 0.00 0.00 0.00 34 1018.6
20260504182048 23 241 6.4 16.1 0.00 0.00 0.00 34 1014.5
20260504181545 23 284 8.0 12.9 0.00 0.00 0.00 34 1014.5
20260504181044 23 199 3.2 6.4 0.00 0.00 0.00 34 1019.0
20260504180542 23 220 3.2 4.8 0.00 0.00 0.00 35 1014.8
20260504180040 23 327 8.0 16.1 0.00 0.00 0.00 33 1014.8
20260504180035 23 260 6.4 12.9 0.00 0.00 0.00 36 1019.0
20260504175537 23 248 3.2 16.1 0.00 0.00 0.00 37 1014.8
20260504175034 23 123 3.2 6.4 0.00 0.00 0.00 33 1014.9
20260504175031 23 251 3.2 6.4 0.00 0.00 0.00 36 1019.0
20260504174532 22 264 9.7 14.5 0.00 0.00 0.00 36 1014.8
20260504174028 23 248 6.4 6.4 0.00 0.00 0.00 35 1015.0
20260504173525 23 258 4.8 16.1 0.00 0.00 0.00 37 1015.0
20260504173024 22 280 4.8 11.3 0.00 0.00 0.00 37 1019.3
20260504172519 22 263 9.7 11.3 0.00 0.00 0.00 36 1015.3
20260504172022 21 258 8.0 20.9 0.00 0.00 0.00 36 1019.5
20260504172015 21 266 4.8 11.3 0.00 0.00 0.00 37 1015.3
20260504171512 21 231 8.0 20.9 0.00 0.00 0.00 36 1015.5
20260504171018 22 257 9.7 24.1 0.00 0.00 0.00 37 1019.8
20260504171009 21 164 8.0 17.7 0.00 0.00 0.00 36 1015.6
20260504170505 22 247 1.6 4.8 0.00 0.00 0.00 40 1015.4
20260504170155 22 245 6.4 14.5 0.00 0.00 0.00 37 1019.7
20260504160425 21 278 4.8 11.3 0.00 0.00 0.00 39 1016.4
20260504151027 19 284 1.6 6.4 0.00 0.00 0.00 42 1020.8
20260504150849 19 289 1.6 6.4 0.00 0.00 0.00 42 1016.6
20260504150345 18 235 0.0 6.4 0.00 0.00 0.00 41 1016.6
20260504141316 16 233 0.0 3.2 0.00 0.00 0.00 52 1016.9
20260504141055 16 307 4.8 9.7 0.00 0.00 0.00 52 1021.2
20260504140812 16 93 6.4 11.3 0.00 0.00 0.00 51 1017.2
20260504140308 16 220 1.6 9.7 0.00 0.00 0.00 52 1017.2
20260504130737 13 261 3.2 9.7 0.00 0.00 0.00 59 1017.4
20260504130233 13 342 3.2 9.7 0.00 0.00 0.00 59 1017.4
20260504120156 11 294 1.6 1.6 0.00 0.00 0.00 69 1017.8
20260504110624 10 274 0.0 0.0 0.00 0.00 0.00 74 1017.9
20260504110120 9 255 0.0 0.0 0.00 0.00 0.00 75 1017.9
20260504100545 10 261 0.0 0.0 0.00 0.00 0.00 71 1017.9
20260504081939 10 259 0.0 3.2 0.00 0.00 0.00 76 1018.1
20260504081436 10 245 0.0 1.6 0.00 0.00 0.00 77 1018.1
20260504080932 10 252 0.0 1.6 0.00 0.00 0.00 78 1018.0
20260504080429 10 241 0.0 1.6 0.00 0.00 0.00 79 1018.3
20260504070357 8 33 0.0 0.0 0.00 0.00 0.00 85 1018.3
20260504050744 7 108 0.0 0.0 0.00 0.00 0.00 88 1018.4
20260504050241 7 108 0.0 0.0 0.00 0.00 0.00 88 1018.4
20260504045738 7 108 0.0 1.6 0.00 0.00 0.00 88 1018.3
20260504045233 7 108 0.0 1.6 0.00 0.00 0.00 88 1018.2
20260504044731 7 108 0.0 0.0 0.00 0.00 0.00 88 1018.1
20260504044229 7 107 1.6 1.6 0.00 0.00 0.00 89 1018.1
20260504043725 7 211 0.0 0.0 0.00 0.00 0.00 89 1018.1
20260504043222 7 211 0.0 0.0 0.00 0.00 0.00 89 1018.2
20260504042720 6 211 0.0 0.0 0.00 0.00 0.00 89 1018.1
20260504042216 6 211 0.0 0.0 0.00 0.00 0.00 89 1018.2